Time,TemperatureF,DewpointF,PressureIn,WindDirection,WindDirectionDegrees,WindSpeedMPH,WindSpeedGustMPH,Humidity,HourlyPrecipIn,Conditions,Clouds,dailyrainin,SoftwareType,DateUTC
2013-07-18 00:02:00,77.6,72.7,29.82,ENE,68,0.0,0.0,85,0.00,,,0.00,Wunderground v.1.15,2013-07-18 05:02:00,
2013-07-18 00:07:00,77.4,72.9,29.82,ENE,68,0.0,0.0,86,0.00,,,0.00,Wunderground v.1.15,2013-07-18 05:07:00,
2013-07-18 00:13:00,77.4,73.9,29.83,ENE,68,0.0,0.0,89,0.00,,,0.00,Wunderground v.1.15,2013-07-18 05:13:00,
2013-07-18 00:18:00,77.1,73.3,29.83,ENE,68,0.0,0.0,88,0.00,,,0.00,Wunderground v.1.15,2013-07-18 05:18:00,
2013-07-18 00:23:00,76.9,72.7,29.83,ENE,68,0.0,0.0,87,0.00,,,0.00,Wunderground v.1.15,2013-07-18 05:23:00,
2013-07-18 00:28:00,76.9,73.1,29.82,NNE,13,0.0,0.0,88,0.00,,,0.00,Wunderground v.1.15,2013-07-18 05:28:00,
2013-07-18 00:34:00,77.3,74.1,29.82,NNE,13,0.0,0.0,90,0.00,,,0.00,Wunderground v.1.15,2013-07-18 05:34:00,
2013-07-18 00:39:00,77.5,75.0,29.82,North,9,0.0,0.0,92,0.00,,,0.00,Wunderground v.1.15,2013-07-18 05:39:00,
2013-07-18 00:44:00,77.5,74.7,29.81,North,8,0.0,0.0,91,0.00,,,0.00,Wunderground v.1.15,2013-07-18 05:44:00,
2013-07-18 00:50:00,77.4,74.6,29.81,North,9,0.0,0.0,91,0.00,,,0.00,Wunderground v.1.15,2013-07-18 05:50:00,
2013-07-18 00:55:00,77.3,74.1,29.81,North,8,0.0,0.0,90,0.00,,,0.00,Wunderground v.1.15,2013-07-18 05:55:00,
2013-07-18 01:00:00,77.2,73.7,29.81,North,8,0.0,0.0,89,0.00,,,0.00,Wunderground v.1.15,2013-07-18 06:00:00,
2013-07-18 01:06:00,77.2,73.7,29.81,North,9,0.0,0.0,89,0.00,,,0.00,Wunderground v.1.15,2013-07-18 06:06:00,
2013-07-18 01:11:00,76.9,72.7,29.81,North,8,0.0,0.0,87,0.00,,,0.00,Wunderground v.1.15,2013-07-18 06:11:00,
2013-07-18 01:16:00,76.8,73.0,29.81,North,8,0.0,0.0,88,0.00,,,0.00,Wunderground v.1.15,2013-07-18 06:16:00,
2013-07-18 01:21:00,76.6,72.8,29.81,North,8,0.0,0.0,88,0.00,,,0.00,Wunderground v.1.15,2013-07-18 06:21:00,
2013-07-18 01:27:00,76.2,72.7,29.81,North,9,0.0,0.0,89,0.00,,,0.00,Wunderground v.1.15,2013-07-18 06:27:00,
2013-07-18 01:32:00,76.0,72.5,29.81,North,9,0.0,0.0,89,0.00,,,0.00,Wunderground v.1.15,2013-07-18 06:32:00,
2013-07-18 01:38:00,75.8,72.3,29.80,North,8,0.0,0.0,89,0.00,,,0.00,Wunderground v.1.15,2013-07-18 06:38:00,
2013-07-18 01:43:00,75.8,72.3,29.80,North,8,0.0,0.0,89,0.00,,,0.00,Wunderground v.1.15,2013-07-18 06:43:00,
2013-07-18 01:48:00,75.8,72.0,29.80,North,4,0.0,0.0,88,0.00,,,0.00,Wunderground v.1.15,2013-07-18 06:48:00,
2013-07-18 01:53:00,76.1,71.9,29.80,North,360,0.0,0.0,87,0.00,,,0.00,Wunderground v.1.15,2013-07-18 06:53:00,
2013-07-18 01:59:00,76.5,72.3,29.80,NW,324,0.0,0.0,87,0.00,,,0.00,Wunderground v.1.15,2013-07-18 06:59:00,
2013-07-18 02:04:00,76.6,72.1,29.80,WNW,295,0.0,0.0,86,0.00,,,0.00,Wunderground v.1.15,2013-07-18 07:04:00,
2013-07-18 02:09:00,76.7,72.2,29.80,WNW,290,0.0,0.0,86,0.00,,,0.00,Wunderground v.1.15,2013-07-18 07:09:00,
2013-07-18 02:14:00,76.6,72.4,29.80,WNW,291,0.0,0.0,87,0.00,,,0.00,Wunderground v.1.15,2013-07-18 07:14:00,
2013-07-18 02:19:00,76.5,72.3,29.79,WNW,291,0.0,0.0,87,0.00,,,0.00,Wunderground v.1.15,2013-07-18 07:19:00,
2013-07-18 02:24:00,76.8,72.6,29.79,WNW,295,0.0,0.0,87,0.00,,,0.00,Wunderground v.1.15,2013-07-18 07:24:00,
2013-07-18 02:29:00,77.0,72.8,29.79,WNW,297,0.0,0.0,87,0.00,,,0.00,Wunderground v.1.15,2013-07-18 07:29:00,
2013-07-18 02:34:00,77.0,72.5,29.79,WNW,293,2.0,3.0,86,0.00,,,0.00,Wunderground v.1.15,2013-07-18 07:34:00,
2013-07-18 02:39:00,76.8,71.9,29.79,NW,316,1.0,3.0,85,0.00,,,0.00,Wunderground v.1.15,2013-07-18 07:39:00,
2013-07-18 02:44:00,76.7,71.8,29.79,NW,309,0.0,2.0,85,0.00,,,0.00,Wunderground v.1.15,2013-07-18 07:44:00,
2013-07-18 02:49:00,76.8,71.9,29.79,NW,307,0.0,2.0,85,0.00,,,0.00,Wunderground v.1.15,2013-07-18 07:49:00,
2013-07-18 02:54:00,76.7,71.8,29.78,NW,308,0.0,1.0,85,0.00,,,0.00,Wunderground v.1.15,2013-07-18 07:54:00,
2013-07-18 02:59:00,76.6,71.4,29.78,NW,309,0.0,1.0,84,0.00,,,0.00,Wunderground v.1.15,2013-07-18 07:59:00,
2013-07-18 03:04:00,76.6,71.7,29.79,WNW,300,1.0,1.0,85,0.00,,,0.00,Wunderground v.1.15,2013-07-18 08:04:00,
2013-07-18 03:09:00,76.4,71.6,29.78,West,259,1.0,1.0,85,0.00,,,0.00,Wunderground v.1.15,2013-07-18 08:09:00,
2013-07-18 03:14:00,76.2,71.0,29.78,West,262,0.0,1.0,84,0.00,,,0.00,Wunderground v.1.15,2013-07-18 08:14:00,
2013-07-18 03:19:00,76.0,70.8,29.78,West,269,0.0,1.0,84,0.00,,,0.00,Wunderground v.1.15,2013-07-18 08:19:00,
2013-07-18 03:24:00,75.8,71.0,29.78,West,269,0.0,0.0,85,0.00,,,0.00,Wunderground v.1.15,2013-07-18 08:24:00,
2013-07-18 03:29:00,75.7,71.2,29.78,West,269,0.0,0.0,86,0.00,,,0.00,Wunderground v.1.15,2013-07-18 08:29:00,
2013-07-18 03:34:00,75.5,71.4,29.78,West,269,0.0,0.0,87,0.00,,,0.00,Wunderground v.1.15,2013-07-18 08:34:00,
2013-07-18 03:39:00,75.2,71.1,29.78,West,270,0.0,0.0,87,0.00,,,0.00,Wunderground v.1.15,2013-07-18 08:39:00,
2013-07-18 03:44:00,75.1,71.3,29.78,West,269,0.0,0.0,88,0.00,,,0.00,Wunderground v.1.15,2013-07-18 08:44:00,
2013-07-18 03:50:00,74.9,71.1,29.78,West,270,0.0,0.0,88,0.00,,,0.00,Wunderground v.1.15,2013-07-18 08:50:00,
2013-07-18 03:55:00,74.8,71.3,29.78,West,270,0.0,0.0,89,0.00,,,0.00,Wunderground v.1.15,2013-07-18 08:55:00,
2013-07-18 03:59:00,74.7,70.9,29.78,West,273,0.0,0.0,88,0.00,,,0.00,Wunderground v.1.15,2013-07-18 08:59:00,
2013-07-18 04:05:00,74.8,71.0,29.78,West,273,0.0,1.0,88,0.00,,,0.00,Wunderground v.1.15,2013-07-18 09:05:00,
2013-07-18 04:10:00,74.8,70.7,29.78,West,273,0.0,0.0,87,0.00,,,0.00,Wunderground v.1.15,2013-07-18 09:10:00,
2013-07-18 04:15:00,74.8,70.7,29.78,West,271,0.0,0.0,87,0.00,,,0.00,Wunderground v.1.15,2013-07-18 09:15:00,
2013-07-18 04:20:00,74.8,70.7,29.77,West,271,0.0,0.0,87,0.00,,,0.00,Wunderground v.1.15,2013-07-18 09:20:00,
2013-07-18 04:25:00,74.7,70.9,29.78,West,271,0.0,1.0,88,0.00,,,0.00,Wunderground v.1.15,2013-07-18 09:25:00,
2013-07-18 04:30:00,74.5,71.0,29.78,West,274,1.0,1.0,89,0.00,,,0.00,Wunderground v.1.15,2013-07-18 09:30:00,
2013-07-18 04:35:00,74.6,70.8,29.77,WNW,293,0.0,2.0,88,0.00,,,0.00,Wunderground v.1.15,2013-07-18 09:35:00,
2013-07-18 04:40:00,75.0,70.9,29.77,WNW,290,0.0,0.0,87,0.00,,,0.00,Wunderground v.1.15,2013-07-18 09:40:00,
2013-07-18 04:45:00,75.2,71.1,29.78,WNW,282,0.0,0.0,87,0.00,,,0.00,Wunderground v.1.15,2013-07-18 09:45:00,
2013-07-18 04:50:00,75.2,71.1,29.78,WNW,283,0.0,0.0,87,0.00,,,0.00,Wunderground v.1.15,2013-07-18 09:50:00,
2013-07-18 04:55:00,75.0,71.5,29.78,WNW,284,0.0,0.0,89,0.00,,,0.00,Wunderground v.1.15,2013-07-18 09:55:00,
2013-07-18 05:00:00,74.9,71.4,29.78,WNW,283,0.0,0.0,89,0.00,,,0.00,Wunderground v.1.15,2013-07-18 10:00:00,
2013-07-18 05:05:00,74.6,71.5,29.78,WNW,283,0.0,0.0,90,0.00,,,0.00,Wunderground v.1.15,2013-07-18 10:05:00,
2013-07-18 05:10:00,74.3,71.2,29.78,WNW,284,0.0,0.0,90,0.00,,,0.00,Wunderground v.1.15,2013-07-18 10:10:00,
2013-07-18 05:15:00,74.3,70.8,29.78,WNW,282,0.0,0.0,89,0.00,,,0.00,Wunderground v.1.15,2013-07-18 10:15:00,
2013-07-18 05:21:00,74.5,71.0,29.78,WNW,287,0.0,0.0,89,0.00,,,0.00,Wunderground v.1.15,2013-07-18 10:21:00,
2013-07-18 05:26:00,74.3,70.8,29.78,West,278,0.0,0.0,89,0.00,,,0.00,Wunderground v.1.15,2013-07-18 10:26:00,
2013-07-18 05:31:00,74.1,71.0,29.78,West,278,0.0,0.0,90,0.00,,,0.00,Wunderground v.1.15,2013-07-18 10:31:00,
2013-07-18 05:36:00,74.0,70.9,29.78,West,278,0.0,0.0,90,0.00,,,0.00,Wunderground v.1.15,2013-07-18 10:36:00,
2013-07-18 05:41:00,74.0,70.9,29.78,West,278,0.0,0.0,90,0.00,,,0.00,Wunderground v.1.15,2013-07-18 10:41:00,
2013-07-18 05:46:00,74.2,70.7,29.78,NNW,340,3.0,3.0,89,0.00,,,0.00,Wunderground v.1.15,2013-07-18 10:46:00,
2013-07-18 05:51:00,74.6,70.8,29.78,NW,312,1.0,1.0,88,0.00,,,0.00,Wunderground v.1.15,2013-07-18 10:51:00,
2013-07-18 05:56:00,74.9,71.1,29.78,WNW,298,2.0,2.0,88,0.00,,,0.00,Wunderground v.1.15,2013-07-18 10:56:00,
2013-07-18 06:01:00,75.2,71.1,29.79,NNW,335,0.0,2.0,87,0.00,,,0.00,Wunderground v.1.15,2013-07-18 11:01:00,
2013-07-18 06:06:00,75.3,71.2,29.79,NW,311,0.0,2.0,87,0.00,,,0.00,Wunderground v.1.15,2013-07-18 11:06:00,
2013-07-18 06:11:00,75.4,70.9,29.79,NW,322,0.0,2.0,86,0.00,,,0.00,Wunderground v.1.15,2013-07-18 11:11:00,
2013-07-18 06:16:00,75.4,70.9,29.79,NW,311,0.0,3.0,86,0.00,,,0.00,Wunderground v.1.15,2013-07-18 11:16:00,
2013-07-18 06:21:00,75.4,70.9,29.78,NW,326,0.0,1.0,86,0.00,,,0.00,Wunderground v.1.15,2013-07-18 11:21:00,
2013-07-18 06:26:00,75.4,70.9,29.78,NW,322,0.0,1.0,86,0.00,,,0.00,Wunderground v.1.15,2013-07-18 11:26:00,
2013-07-18 06:31:00,75.6,70.8,29.79,NE,55,2.0,3.0,85,0.00,,,0.00,Wunderground v.1.15,2013-07-18 11:31:00,
2013-07-18 06:36:00,75.8,71.3,29.79,NNW,347,0.0,3.0,86,0.00,,,0.00,Wunderground v.1.15,2013-07-18 11:36:00,
2013-07-18 06:41:00,75.9,71.4,29.79,NNW,333,0.0,1.0,86,0.00,,,0.00,Wunderground v.1.15,2013-07-18 11:41:00,
2013-07-18 06:46:00,75.9,71.1,29.79,NW,314,1.0,2.0,85,0.00,,,0.00,Wunderground v.1.15,2013-07-18 11:46:00,
2013-07-18 06:51:00,76.0,70.8,29.79,NW,309,1.0,1.0,84,0.00,,,0.00,Wunderground v.1.15,2013-07-18 11:51:00,
2013-07-18 06:56:00,76.2,70.7,29.79,NNW,342,0.0,2.0,83,0.00,,,0.00,Wunderground v.1.15,2013-07-18 11:56:00,
2013-07-18 07:02:00,76.7,70.4,29.79,NW,305,0.0,2.0,81,0.00,,,0.00,Wunderground v.1.15,2013-07-18 12:02:00,
2013-07-18 07:07:00,77.2,70.5,29.80,North,356,3.0,3.0,80,0.00,,,0.00,Wunderground v.1.15,2013-07-18 12:07:00,
2013-07-18 07:12:00,77.4,70.7,29.80,NNE,25,1.0,2.0,80,0.00,,,0.00,Wunderground v.1.15,2013-07-18 12:12:00,
2013-07-18 07:17:00,77.8,71.1,29.80,NE,34,0.0,2.0,80,0.00,,,0.00,Wunderground v.1.15,2013-07-18 12:17:00,
2013-07-18 07:22:00,77.9,71.2,29.80,North,351,1.0,2.0,80,0.00,,,0.00,Wunderground v.1.15,2013-07-18 12:22:00,
2013-07-18 07:27:00,77.9,71.2,29.80,NNE,27,2.0,2.0,80,0.00,,,0.00,Wunderground v.1.15,2013-07-18 12:27:00,
2013-07-18 07:32:00,78.1,71.4,29.80,North,356,1.0,3.0,80,0.00,,,0.00,Wunderground v.1.15,2013-07-18 12:32:00,
2013-07-18 07:37:00,78.1,71.4,29.80,NNE,20,3.0,3.0,80,0.00,,,0.00,Wunderground v.1.15,2013-07-18 12:37:00,
2013-07-18 07:42:00,78.3,71.2,29.80,NNW,345,3.0,3.0,79,0.00,,,0.00,Wunderground v.1.15,2013-07-18 12:42:00,
2013-07-18 07:47:00,78.2,71.9,29.80,ENE,70,1.0,3.0,81,0.00,,,0.00,Wunderground v.1.15,2013-07-18 12:47:00,
2013-07-18 07:52:00,78.6,71.5,29.80,NNE,18,1.0,2.0,79,0.00,,,0.00,Wunderground v.1.15,2013-07-18 12:52:00,
2013-07-18 07:57:00,78.8,71.4,29.80,North,9,1.0,2.0,78,0.00,,,0.00,Wunderground v.1.15,2013-07-18 12:57:00,
2013-07-18 08:02:00,79.0,71.6,29.80,NNE,12,1.0,2.0,78,0.00,,,0.00,Wunderground v.1.15,2013-07-18 13:02:00,
2013-07-18 08:07:00,79.0,71.6,29.80,NNE,28,2.0,3.0,78,0.00,,,0.00,Wunderground v.1.15,2013-07-18 13:07:00,
2013-07-18 08:12:00,79.2,71.7,29.80,NNE,26,0.0,1.0,78,0.00,,,0.00,Wunderground v.1.15,2013-07-18 13:12:00,
2013-07-18 08:17:00,79.5,71.7,29.80,North,3,2.0,3.0,77,0.00,,,0.00,Wunderground v.1.15,2013-07-18 13:17:00,
2013-07-18 08:22:00,79.5,72.0,29.81,NNE,20,1.0,2.0,78,0.00,,,0.00,Wunderground v.1.15,2013-07-18 13:22:00,
2013-07-18 08:27:00,79.8,71.9,29.81,NE,56,2.0,2.0,77,0.00,,,0.00,Wunderground v.1.15,2013-07-18 13:27:00,
2013-07-18 08:32:00,80.3,72.4,29.80,NNE,18,2.0,2.0,77,0.00,,,0.00,Wunderground v.1.15,2013-07-18 13:32:00,
2013-07-18 08:37:00,80.9,72.2,29.80,North,351,1.0,2.0,75,0.00,,,0.00,Wunderground v.1.15,2013-07-18 13:37:00,
2013-07-18 08:43:00,80.8,72.5,29.80,ENE,65,1.0,3.0,76,0.00,,,0.00,Wunderground v.1.15,2013-07-18 13:43:00,
2013-07-18 08:48:00,81.1,72.8,29.80,NE,44,1.0,3.0,76,0.00,,,0.00,Wunderground v.1.15,2013-07-18 13:48:00,
2013-07-18 08:52:00,81.5,73.2,29.80,NE,36,0.0,2.0,76,0.00,,,0.00,Wunderground v.1.15,2013-07-18 13:52:00,
2013-07-18 08:58:00,81.5,73.2,29.80,North,8,0.0,2.0,76,0.00,,,0.00,Wunderground v.1.15,2013-07-18 13:58:00,
2013-07-18 09:03:00,82.2,73.1,29.80,NNW,331,3.0,3.0,74,0.00,,,0.00,Wunderground v.1.15,2013-07-18 14:03:00,
2013-07-18 09:08:00,81.5,72.8,29.80,North,5,2.0,4.0,75,0.00,,,0.00,Wunderground v.1.15,2013-07-18 14:08:00,
2013-07-18 09:13:00,81.6,73.3,29.79,NE,52,0.0,2.0,76,0.00,,,0.00,Wunderground v.1.15,2013-07-18 14:13:00,
2013-07-18 09:18:00,82.1,73.4,29.79,NE,56,2.0,3.0,75,0.00,,,0.00,Wunderground v.1.15,2013-07-18 14:18:00,
2013-07-18 09:23:00,82.0,73.3,29.79,NE,41,1.0,3.0,75,0.00,,,0.00,Wunderground v.1.15,2013-07-18 14:23:00,
2013-07-18 09:28:00,81.9,72.8,29.79,ENE,75,2.0,3.0,74,0.00,,,0.00,Wunderground v.1.15,2013-07-18 14:28:00,
2013-07-18 09:33:00,82.6,73.1,29.79,NE,37,1.0,3.0,73,0.00,,,0.00,Wunderground v.1.15,2013-07-18 14:33:00,
2013-07-18 09:38:00,83.1,73.1,29.79,NE,52,2.0,3.0,72,0.00,,,0.00,Wunderground v.1.15,2013-07-18 14:38:00,
2013-07-18 09:43:00,83.3,73.3,29.79,NE,49,4.0,4.0,72,0.00,,,0.00,Wunderground v.1.15,2013-07-18 14:43:00,
2013-07-18 09:48:00,83.5,73.1,29.79,East,84,1.0,4.0,71,0.00,,,0.00,Wunderground v.1.15,2013-07-18 14:48:00,
2013-07-18 09:53:00,83.7,73.7,29.79,ESE,105,1.0,2.0,72,0.00,,,0.00,Wunderground v.1.15,2013-07-18 14:53:00,
2013-07-18 09:58:00,84.0,73.2,29.79,ENE,64,3.0,3.0,70,0.00,,,0.00,Wunderground v.1.15,2013-07-18 14:58:00,
2013-07-18 10:03:00,84.0,74.4,29.79,ENE,59,2.0,3.0,73,0.00,,,0.00,Wunderground v.1.15,2013-07-18 15:03:00,
2013-07-18 10:08:00,84.0,73.2,29.79,NE,55,2.0,4.0,70,0.00,,,0.00,Wunderground v.1.15,2013-07-18 15:08:00,
2013-07-18 10:13:00,84.3,73.9,29.79,ESE,115,1.0,4.0,71,0.00,,,0.00,Wunderground v.1.15,2013-07-18 15:13:00,
2013-07-18 10:18:00,84.5,73.2,29.79,ESE,103,2.0,4.0,69,0.00,,,0.00,Wunderground v.1.15,2013-07-18 15:18:00,
2013-07-18 10:23:00,84.6,73.3,29.79,ESE,105,2.0,3.0,69,0.00,,,0.00,Wunderground v.1.15,2013-07-18 15:23:00,
2013-07-18 10:28:00,84.9,73.6,29.79,ESE,105,2.0,4.0,69,0.00,,,0.00,Wunderground v.1.15,2013-07-18 15:28:00,
2013-07-18 10:33:00,85.5,73.3,29.79,East,97,0.0,2.0,67,0.00,,,0.00,Wunderground v.1.15,2013-07-18 15:33:00,
2013-07-18 10:38:00,85.4,73.2,29.79,ESE,115,2.0,4.0,67,0.00,,,0.00,Wunderground v.1.15,2013-07-18 15:38:00,
2013-07-18 10:43:00,85.6,72.9,29.79,ESE,102,2.0,4.0,66,0.00,,,0.00,Wunderground v.1.15,2013-07-18 15:43:00,
2013-07-18 10:48:00,85.6,72.9,29.79,ESE,103,2.0,4.0,66,0.00,,,0.00,Wunderground v.1.15,2013-07-18 15:48:00,
2013-07-18 10:53:00,85.6,72.9,29.79,East,88,3.0,3.0,66,0.00,,,0.00,Wunderground v.1.15,2013-07-18 15:53:00,
2013-07-18 10:58:00,85.4,72.7,29.79,East,97,2.0,5.0,66,0.00,,,0.00,Wunderground v.1.15,2013-07-18 15:58:00,
2013-07-18 11:03:00,85.3,73.1,29.79,ESE,113,1.0,4.0,67,0.00,,,0.00,Wunderground v.1.15,2013-07-18 16:03:00,
2013-07-18 11:08:00,85.4,72.7,29.79,East,82,2.0,5.0,66,0.00,,,0.00,Wunderground v.1.15,2013-07-18 16:08:00,
2013-07-18 11:13:00,85.9,73.2,29.79,ESE,115,1.0,3.0,66,0.00,,,0.00,Wunderground v.1.15,2013-07-18 16:13:00,
2013-07-18 11:18:00,86.0,72.9,29.79,ESE,106,2.0,5.0,65,0.00,,,0.00,Wunderground v.1.15,2013-07-18 16:18:00,
2013-07-18 11:23:00,86.0,73.3,29.78,SE,134,2.0,4.0,66,0.00,,,0.00,Wunderground v.1.15,2013-07-18 16:23:00,
2013-07-18 11:28:00,86.2,72.6,29.78,ESE,109,3.0,5.0,64,0.00,,,0.00,Wunderground v.1.15,2013-07-18 16:28:00,
2013-07-18 11:33:00,85.7,73.0,29.78,ESE,105,2.0,5.0,66,0.00,,,0.00,Wunderground v.1.15,2013-07-18 16:33:00,
2013-07-18 11:38:00,85.7,72.6,29.78,East,101,1.0,5.0,65,0.00,,,0.00,Wunderground v.1.15,2013-07-18 16:38:00,
2013-07-18 11:43:00,85.7,73.0,29.78,ENE,75,1.0,2.0,66,0.00,,,0.00,Wunderground v.1.15,2013-07-18 16:43:00,
2013-07-18 11:48:00,86.0,72.9,29.78,ESE,110,1.0,4.0,65,0.00,,,0.00,Wunderground v.1.15,2013-07-18 16:48:00,
2013-07-18 11:53:00,86.0,73.3,29.78,East,92,2.0,3.0,66,0.00,,,0.00,Wunderground v.1.15,2013-07-18 16:53:00,
2013-07-18 11:58:00,86.0,73.3,29.78,ESE,104,1.0,3.0,66,0.00,,,0.00,Wunderground v.1.15,2013-07-18 16:58:00,
2013-07-18 12:03:00,86.1,73.0,29.78,ESE,109,2.0,3.0,65,0.00,,,0.00,Wunderground v.1.15,2013-07-18 17:03:00,
2013-07-18 12:04:00,86.0,72.9,29.78,ESE,110,2.0,3.0,65,0.00,,,0.00,Wunderground v.1.15,2013-07-18 17:04:00,
2013-07-18 12:09:00,85.8,73.1,29.77,ESE,106,2.0,5.0,66,0.00,,,0.00,Wunderground v.1.15,2013-07-18 17:09:00,
2013-07-18 12:14:00,85.7,73.5,29.77,East,97,1.0,3.0,67,0.00,,,0.00,Wunderground v.1.15,2013-07-18 17:14:00,
2013-07-18 12:19:00,85.8,73.1,29.77,NE,47,0.0,3.0,66,0.00,,,0.00,Wunderground v.1.15,2013-07-18 17:19:00,
2013-07-18 12:24:00,86.1,73.0,29.77,NE,52,3.0,5.0,65,0.00,,,0.00,Wunderground v.1.15,2013-07-18 17:24:00,
2013-07-18 12:29:00,86.0,72.9,29.77,East,95,2.0,5.0,65,0.00,,,0.00,Wunderground v.1.15,2013-07-18 17:29:00,
2013-07-18 12:34:00,86.3,74.5,29.76,ENE,68,2.0,2.0,68,0.00,,,0.00,Wunderground v.1.15,2013-07-18 17:34:00,
2013-07-18 12:39:00,86.3,74.0,29.75,NNE,15,2.0,3.0,67,0.00,,,0.00,Wunderground v.1.15,2013-07-18 17:39:00,
2013-07-18 12:44:00,86.1,73.4,29.75,ENE,68,3.0,4.0,66,0.00,,,0.00,Wunderground v.1.15,2013-07-18 17:44:00,
2013-07-18 12:49:00,86.9,73.7,29.75,NE,49,4.0,6.0,65,0.00,,,0.00,Wunderground v.1.15,2013-07-18 17:49:00,
2013-07-18 12:54:00,86.7,73.5,29.75,ESE,115,0.0,5.0,65,0.00,,,0.00,Wunderground v.1.15,2013-07-18 17:54:00,
2013-07-18 12:59:00,86.8,73.2,29.75,NE,42,3.0,5.0,64,0.00,,,0.00,Wunderground v.1.15,2013-07-18 17:59:00,
2013-07-18 13:04:00,86.5,73.8,29.75,NE,44,0.0,3.0,66,0.00,,,0.00,Wunderground v.1.15,2013-07-18 18:04:00,
2013-07-18 13:09:00,86.0,73.8,29.75,ENE,75,1.0,4.0,67,0.00,,,0.00,Wunderground v.1.15,2013-07-18 18:09:00,
2013-07-18 13:14:00,85.3,73.5,29.75,SE,127,9.0,9.0,68,0.00,,,0.00,Wunderground v.1.15,2013-07-18 18:14:00,
2013-07-18 13:19:00,84.2,72.9,29.75,ESE,110,2.0,9.0,69,0.00,,,0.00,Wunderground v.1.15,2013-07-18 18:19:00,
2013-07-18 13:24:00,82.9,72.9,29.75,SE,124,0.0,8.0,72,0.00,,,0.00,Wunderground v.1.15,2013-07-18 18:24:00,
2013-07-18 13:29:00,82.4,73.3,29.75,SSE,149,2.0,8.0,74,0.00,,,0.00,Wunderground v.1.15,2013-07-18 18:29:00,
2013-07-18 13:34:00,82.3,72.8,29.74,East,93,1.0,5.0,73,0.00,,,0.00,Wunderground v.1.15,2013-07-18 18:34:00,
2013-07-18 13:39:00,82.8,72.8,29.74,East,89,0.0,5.0,72,0.00,,,0.00,Wunderground v.1.15,2013-07-18 18:39:00,
2013-07-18 13:44:00,83.5,73.5,29.74,ESE,107,1.0,6.0,72,0.00,,,0.00,Wunderground v.1.15,2013-07-18 18:44:00,
2013-07-18 13:49:00,84.3,73.9,29.73,NE,50,4.0,6.0,71,0.00,,,0.00,Wunderground v.1.15,2013-07-18 18:49:00,
2013-07-18 13:54:00,84.3,74.7,29.73,ESE,113,2.0,8.0,73,0.00,,,0.00,Wunderground v.1.15,2013-07-18 18:54:00,
2013-07-18 13:59:00,84.4,74.4,29.73,ESE,113,2.0,8.0,72,0.00,,,0.00,Wunderground v.1.15,2013-07-18 18:59:00,
2013-07-18 14:04:00,84.6,74.6,29.73,East,96,2.0,5.0,72,0.00,,,0.00,Wunderground v.1.15,2013-07-18 19:04:00,
2013-07-18 14:10:00,84.8,74.3,29.73,ESE,115,5.0,5.0,71,0.00,,,0.00,Wunderground v.1.15,2013-07-18 19:10:00,
2013-07-18 14:15:00,84.6,74.6,29.73,East,84,2.0,7.0,72,0.00,,,0.00,Wunderground v.1.15,2013-07-18 19:15:00,
2013-07-18 14:20:00,84.7,74.7,29.72,ESE,106,2.0,4.0,72,0.00,,,0.00,Wunderground v.1.15,2013-07-18 19:20:00,
2013-07-18 14:25:00,84.5,74.5,29.71,ESE,103,5.0,7.0,72,0.00,,,0.00,Wunderground v.1.15,2013-07-18 19:25:00,
2013-07-18 14:30:00,84.3,73.4,29.71,East,101,1.0,3.0,70,0.00,,,0.00,Wunderground v.1.15,2013-07-18 19:30:00,
2013-07-18 14:35:00,84.3,73.0,29.70,ESE,106,2.0,8.0,69,0.00,,,0.00,Wunderground v.1.15,2013-07-18 19:35:00,
2013-07-18 14:40:00,84.7,73.4,29.70,NNE,18,4.0,5.0,69,0.00,,,0.00,Wunderground v.1.15,2013-07-18 19:40:00,
2013-07-18 14:45:00,84.4,73.1,29.70,ESE,115,4.0,5.0,69,0.00,,,0.00,Wunderground v.1.15,2013-07-18 19:45:00,
2013-07-18 14:50:00,85.2,73.0,29.70,East,95,6.0,7.0,67,0.00,,,0.00,Wunderground v.1.15,2013-07-18 19:50:00,
2013-07-18 14:55:00,84.6,72.0,29.70,East,90,2.0,7.0,66,0.00,,,0.00,Wunderground v.1.15,2013-07-18 19:55:00,
2013-07-18 15:00:00,84.1,72.4,29.70,NNE,12,2.0,3.0,68,0.00,,,0.00,Wunderground v.1.15,2013-07-18 20:00:00,
2013-07-18 15:05:00,84.6,72.9,29.70,ENE,78,4.0,5.0,68,0.00,,,0.00,Wunderground v.1.15,2013-07-18 20:05:00,
2013-07-18 15:10:00,85.0,72.4,29.70,NE,49,5.0,6.0,66,0.00,,,0.00,Wunderground v.1.15,2013-07-18 20:10:00,
2013-07-18 15:15:00,84.6,72.4,29.70,SE,139,0.0,7.0,67,0.00,,,0.00,Wunderground v.1.15,2013-07-18 20:15:00,
2013-07-18 15:20:00,84.7,71.6,29.70,East,80,1.0,3.0,65,0.00,,,0.00,Wunderground v.1.15,2013-07-18 20:20:00,
2013-07-18 15:25:00,84.6,71.1,29.70,NE,41,4.0,7.0,64,0.00,,,0.00,Wunderground v.1.15,2013-07-18 20:25:00,
2013-07-18 15:30:00,84.7,71.6,29.70,East,89,1.0,2.0,65,0.00,,,0.00,Wunderground v.1.15,2013-07-18 20:30:00,
2013-07-18 15:35:00,84.4,71.3,29.71,ESE,110,4.0,6.0,65,0.00,,,0.00,Wunderground v.1.15,2013-07-18 20:35:00,
2013-07-18 15:40:00,84.2,72.0,29.71,NE,42,0.0,2.0,67,0.00,,,0.00,Wunderground v.1.15,2013-07-18 20:40:00,
2013-07-18 15:45:00,84.8,71.3,29.70,East,96,2.0,4.0,64,0.00,,,0.00,Wunderground v.1.15,2013-07-18 20:45:00,
2013-07-18 15:50:00,85.4,71.8,29.70,ESE,110,0.0,1.0,64,0.00,,,0.00,Wunderground v.1.15,2013-07-18 20:50:00,
2013-07-18 15:55:00,86.0,72.4,29.69,East,88,2.0,2.0,64,0.00,,,0.00,Wunderground v.1.15,2013-07-18 20:55:00,
2013-07-18 16:00:00,86.7,72.1,29.69,East,96,2.0,3.0,62,0.00,,,0.00,Wunderground v.1.15,2013-07-18 21:00:00,
2013-07-18 16:05:00,86.1,72.0,29.69,East,98,2.0,5.0,63,0.00,,,0.00,Wunderground v.1.15,2013-07-18 21:05:00,
2013-07-18 16:10:00,86.0,71.5,29.69,East,94,1.0,2.0,62,0.00,,,0.00,Wunderground v.1.15,2013-07-18 21:10:00,
2013-07-18 16:15:00,86.9,71.8,29.69,NE,51,3.0,3.0,61,0.00,,,0.00,Wunderground v.1.15,2013-07-18 21:15:00,
2013-07-18 16:20:00,86.9,72.3,29.69,East,97,1.0,1.0,62,0.00,,,0.00,Wunderground v.1.15,2013-07-18 21:20:00,
2013-07-18 16:25:00,86.9,72.3,29.69,ENE,73,1.0,3.0,62,0.00,,,0.00,Wunderground v.1.15,2013-07-18 21:25:00,
2013-07-18 16:30:00,87.0,72.4,29.69,ENE,77,1.0,1.0,62,0.00,,,0.00,Wunderground v.1.15,2013-07-18 21:30:00,
2013-07-18 16:35:00,86.8,71.7,29.68,ESE,106,3.0,3.0,61,0.00,,,0.00,Wunderground v.1.15,2013-07-18 21:35:00,
2013-07-18 16:40:00,86.5,71.9,29.68,ESE,105,1.0,2.0,62,0.00,,,0.00,Wunderground v.1.15,2013-07-18 21:40:00,
2013-07-18 16:45:00,86.2,72.1,29.68,ENE,70,0.0,3.0,63,0.00,,,0.00,Wunderground v.1.15,2013-07-18 21:45:00,
2013-07-18 16:50:00,86.3,72.2,29.67,ESE,110,0.0,1.0,63,0.00,,,0.00,Wunderground v.1.15,2013-07-18 21:50:00,
2013-07-18 16:55:00,86.1,72.0,29.67,NNE,33,1.0,2.0,63,0.00,,,0.00,Wunderground v.1.15,2013-07-18 21:55:00,
2013-07-18 17:00:00,85.0,72.4,29.67,NE,46,2.0,2.0,66,0.00,,,0.00,Wunderground v.1.15,2013-07-18 22:00:00,
2013-07-18 17:05:00,84.4,72.2,29.67,NE,47,2.0,2.0,67,0.00,,,0.00,Wunderground v.1.15,2013-07-18 22:05:00,
2013-07-18 17:10:00,84.2,72.9,29.67,ESE,103,2.0,2.0,69,0.00,,,0.00,Wunderground v.1.15,2013-07-18 22:10:00,
2013-07-18 17:15:00,84.2,72.9,29.67,ESE,103,0.0,2.0,69,0.00,,,0.00,Wunderground v.1.15,2013-07-18 22:15:00,
2013-07-18 17:20:00,84.1,72.8,29.67,NNE,23,0.0,1.0,69,0.00,,,0.00,Wunderground v.1.15,2013-07-18 22:20:00,
2013-07-18 17:25:00,83.7,72.9,29.68,SE,141,0.0,1.0,70,0.00,,,0.00,Wunderground v.1.15,2013-07-18 22:25:00,
2013-07-18 17:30:00,83.7,72.9,29.67,SE,141,1.0,1.0,70,0.00,,,0.00,Wunderground v.1.15,2013-07-18 22:30:00,
2013-07-18 17:35:00,83.6,73.2,29.67,ESE,121,1.0,3.0,71,0.00,,,0.00,Wunderground v.1.15,2013-07-18 22:35:00,
2013-07-18 17:40:00,83.0,73.0,29.67,SE,124,1.0,2.0,72,0.00,,,0.00,Wunderground v.1.15,2013-07-18 22:40:00,
2013-07-18 17:45:00,82.8,73.3,29.67,East,96,1.0,4.0,73,0.00,,,0.00,Wunderground v.1.15,2013-07-18 22:45:00,
2013-07-18 17:50:00,82.5,73.0,29.67,East,79,0.0,1.0,73,0.00,,,0.00,Wunderground v.1.15,2013-07-18 22:50:00,
2013-07-18 17:55:00,82.2,73.1,29.67,SE,124,0.0,2.0,74,0.00,,,0.00,Wunderground v.1.15,2013-07-18 22:55:00,
2013-07-18 18:00:00,82.1,73.0,29.67,East,87,0.0,0.0,74,0.00,,,0.00,Wunderground v.1.15,2013-07-18 23:00:00,
2013-07-18 18:05:00,81.9,73.2,29.68,SE,127,2.0,3.0,75,0.00,,,0.00,Wunderground v.1.15,2013-07-18 23:05:00,
2013-07-18 18:11:00,82.0,72.5,29.68,SE,132,1.0,2.0,73,0.00,,,0.00,Wunderground v.1.15,2013-07-18 23:11:00,
2013-07-18 18:16:00,82.3,72.4,29.68,East,96,1.0,2.0,72,0.00,,,0.00,Wunderground v.1.15,2013-07-18 23:16:00,
2013-07-18 18:21:00,82.5,70.9,29.69,SE,132,1.0,5.0,68,0.00,,,0.00,Wunderground v.1.15,2013-07-18 23:21:00,
2013-07-18 18:26:00,82.6,69.2,29.68,SSW,209,3.0,6.0,64,0.00,,,0.00,Wunderground v.1.15,2013-07-18 23:26:00,
2013-07-18 18:31:00,82.5,69.5,29.69,SSE,158,0.0,3.0,65,0.00,,,0.00,Wunderground v.1.15,2013-07-18 23:31:00,
2013-07-18 18:36:00,82.4,69.0,29.69,SSE,155,1.0,6.0,64,0.00,,,0.00,Wunderground v.1.15,2013-07-18 23:36:00,
2013-07-18 18:41:00,82.2,69.7,29.69,SW,231,3.0,4.0,66,0.00,,,0.00,Wunderground v.1.15,2013-07-18 23:41:00,
2013-07-18 18:46:00,81.8,69.8,29.69,SE,124,2.0,6.0,67,0.00,,,0.00,Wunderground v.1.15,2013-07-18 23:46:00,
2013-07-18 18:51:00,81.5,70.3,29.69,SE,134,2.0,4.0,69,0.00,,,0.00,Wunderground v.1.15,2013-07-18 23:51:00,
2013-07-18 18:56:00,81.2,70.9,29.69,South,169,5.0,6.0,71,0.00,,,0.00,Wunderground v.1.15,2013-07-18 23:56:00,
2013-07-18 19:01:00,80.9,70.6,29.69,SE,134,3.0,4.0,71,0.00,,,0.00,Wunderground v.1.15,2013-07-19 00:01:00,
2013-07-18 19:06:00,80.7,70.8,29.69,South,171,2.0,5.0,72,0.00,,,0.00,Wunderground v.1.15,2013-07-19 00:06:00,
2013-07-18 19:11:00,80.6,70.7,29.69,SSE,152,2.0,6.0,72,0.00,,,0.00,Wunderground v.1.15,2013-07-19 00:11:00,
2013-07-18 19:16:00,80.6,70.7,29.69,South,176,3.0,6.0,72,0.00,,,0.00,Wunderground v.1.15,2013-07-19 00:16:00,
2013-07-18 19:21:00,80.5,71.0,29.69,SE,132,2.0,3.0,73,0.00,,,0.00,Wunderground v.1.15,2013-07-19 00:21:00,
2013-07-18 19:26:00,80.3,70.9,29.69,SSE,148,2.0,6.0,73,0.00,,,0.00,Wunderground v.1.15,2013-07-19 00:26:00,
2013-07-18 19:31:00,80.3,71.3,29.68,SSW,205,3.0,4.0,74,0.00,,,0.00,Wunderground v.1.15,2013-07-19 00:31:00,
2013-07-18 19:36:00,80.3,70.9,29.69,SE,124,3.0,5.0,73,0.00,,,0.00,Wunderground v.1.15,2013-07-19 00:36:00,
2013-07-18 19:41:00,80.1,70.7,29.69,ESE,122,4.0,8.0,73,0.00,,,0.00,Wunderground v.1.15,2013-07-19 00:41:00,
2013-07-18 19:46:00,79.9,70.9,29.69,SE,124,2.0,8.0,74,0.00,,,0.00,Wunderground v.1.15,2013-07-19 00:46:00,
2013-07-18 19:51:00,79.6,70.6,29.69,SSE,160,3.0,4.0,74,0.00,,,0.00,Wunderground v.1.15,2013-07-19 00:51:00,
2013-07-18 19:56:00,79.2,70.6,29.69,SE,124,2.0,7.0,75,0.00,,,0.00,Wunderground v.1.15,2013-07-19 00:56:00,
2013-07-18 20:01:00,78.9,70.7,29.69,SE,134,3.0,7.0,76,0.00,,,0.00,Wunderground v.1.15,2013-07-19 01:01:00,
2013-07-18 20:06:00,78.5,70.3,29.68,SSE,153,5.0,7.0,76,0.00,,,0.00,Wunderground v.1.15,2013-07-19 01:06:00,
2013-07-18 20:11:00,78.2,70.4,29.68,SSE,165,2.0,5.0,77,0.00,,,0.00,Wunderground v.1.15,2013-07-19 01:11:00,
2013-07-18 20:16:00,78.0,70.6,29.68,SW,220,0.0,5.0,78,0.00,,,0.00,Wunderground v.1.15,2013-07-19 01:16:00,
2013-07-18 20:22:00,77.8,70.4,29.68,SSE,153,1.0,2.0,78,0.00,,,0.00,Wunderground v.1.15,2013-07-19 01:22:00,
2013-07-18 20:27:00,77.6,70.6,29.68,SSE,165,2.0,3.0,79,0.00,,,0.00,Wunderground v.1.15,2013-07-19 01:27:00,
2013-07-18 20:32:00,77.4,70.4,29.68,SSW,208,2.0,4.0,79,0.00,,,0.00,Wunderground v.1.15,2013-07-19 01:32:00,
2013-07-18 20:37:00,77.2,70.5,29.68,SW,214,1.0,4.0,80,0.00,,,0.00,Wunderground v.1.15,2013-07-19 01:37:00,
2013-07-18 20:42:00,77.0,70.7,29.68,SE,138,2.0,4.0,81,0.00,,,0.00,Wunderground v.1.15,2013-07-19 01:42:00,
2013-07-18 20:47:00,76.9,70.6,29.68,SE,124,0.0,4.0,81,0.00,,,0.00,Wunderground v.1.15,2013-07-19 01:47:00,
2013-07-18 20:52:00,76.9,70.6,29.68,SSE,156,2.0,3.0,81,0.00,,,0.00,Wunderground v.1.15,2013-07-19 01:52:00,
2013-07-18 20:57:00,76.9,70.6,29.68,SE,137,1.0,3.0,81,0.00,,,0.00,Wunderground v.1.15,2013-07-19 01:57:00,
2013-07-18 21:02:00,76.8,70.5,29.68,SE,141,1.0,3.0,81,0.00,,,0.00,Wunderground v.1.15,2013-07-19 02:02:00,
2013-07-18 21:07:00,76.8,70.9,29.68,SE,124,0.0,4.0,82,0.00,,,0.00,Wunderground v.1.15,2013-07-19 02:07:00,
2013-07-18 21:12:00,76.8,70.9,29.68,SE,141,3.0,3.0,82,0.00,,,0.00,Wunderground v.1.15,2013-07-19 02:12:00,
2013-07-18 21:17:00,76.7,70.8,29.68,SE,124,0.0,4.0,82,0.00,,,0.00,Wunderground v.1.15,2013-07-19 02:17:00,
2013-07-18 21:22:00,76.6,70.7,29.68,SSE,152,3.0,4.0,82,0.00,,,0.00,Wunderground v.1.15,2013-07-19 02:22:00,
2013-07-18 21:27:00,76.5,70.6,29.68,SE,141,2.0,4.0,82,0.00,,,0.00,Wunderground v.1.15,2013-07-19 02:27:00,
2013-07-18 21:32:00,76.5,70.9,29.69,SE,128,1.0,3.0,83,0.00,,,0.00,Wunderground v.1.15,2013-07-19 02:32:00,
2013-07-18 21:37:00,76.5,70.9,29.69,SE,142,1.0,3.0,83,0.00,,,0.00,Wunderground v.1.15,2013-07-19 02:37:00,
2013-07-18 21:42:00,76.5,70.9,29.69,ESE,121,1.0,3.0,83,0.00,,,0.00,Wunderground v.1.15,2013-07-19 02:42:00,
2013-07-18 21:47:00,76.5,70.6,29.69,SSE,153,1.0,4.0,82,0.00,,,0.00,Wunderground v.1.15,2013-07-19 02:47:00,
2013-07-18 21:52:00,76.5,70.6,29.69,ESE,113,1.0,1.0,82,0.00,,,0.00,Wunderground v.1.15,2013-07-19 02:52:00,
2013-07-18 21:57:00,76.6,70.7,29.69,SE,146,1.0,1.0,82,0.00,,,0.00,Wunderground v.1.15,2013-07-19 02:57:00,
2013-07-18 22:02:00,76.4,70.5,29.69,SW,226,2.0,2.0,82,0.00,,,0.00,Wunderground v.1.15,2013-07-19 03:02:00,
2013-07-18 22:07:00,76.1,70.6,29.69,SW,226,0.0,2.0,83,0.00,,,0.00,Wunderground v.1.15,2013-07-19 03:07:00,
2013-07-18 22:12:00,76.0,70.8,29.68,West,264,1.0,2.0,84,0.00,,,0.00,Wunderground v.1.15,2013-07-19 03:12:00,
2013-07-18 22:17:00,75.9,70.7,29.68,West,264,1.0,3.0,84,0.00,,,0.00,Wunderground v.1.15,2013-07-19 03:17:00,
2013-07-18 22:22:00,75.8,70.6,29.68,SW,231,0.0,1.0,84,0.00,,,0.00,Wunderground v.1.15,2013-07-19 03:22:00,
2013-07-18 22:27:00,75.7,70.5,29.69,SW,231,0.0,1.0,84,0.00,,,0.00,Wunderground v.1.15,2013-07-19 03:27:00,
2013-07-18 22:32:00,75.7,70.5,29.69,SE,134,1.0,2.0,84,0.00,,,0.00,Wunderground v.1.15,2013-07-19 03:32:00,
2013-07-18 22:37:00,75.6,70.4,29.69,SE,135,0.0,2.0,84,0.00,,,0.00,Wunderground v.1.15,2013-07-19 03:37:00,
2013-07-18 22:42:00,75.5,70.3,29.69,South,170,1.0,1.0,84,0.00,,,0.00,Wunderground v.1.15,2013-07-19 03:42:00,
2013-07-18 22:47:00,75.4,70.6,29.69,SSW,211,0.0,2.0,85,0.00,,,0.00,Wunderground v.1.15,2013-07-19 03:47:00,
2013-07-18 22:52:00,75.3,70.5,29.68,West,268,0.0,1.0,85,0.00,,,0.00,Wunderground v.1.15,2013-07-19 03:52:00,
2013-07-18 22:57:00,75.3,69.8,29.69,West,266,0.0,1.0,83,0.00,,,0.00,Wunderground v.1.15,2013-07-19 03:57:00,
2013-07-18 23:01:00,75.3,70.1,29.69,West,265,0.0,0.0,84,0.00,,,0.00,Wunderground v.1.15,2013-07-19 04:01:00,
2013-07-18 23:02:00,75.3,70.1,29.69,West,266,0.0,0.0,84,0.00,,,0.00,Wunderground v.1.15,2013-07-19 04:02:00,
2013-07-18 23:07:00,75.2,70.0,29.69,ESE,108,1.0,2.0,84,0.00,,,0.00,Wunderground v.1.15,2013-07-19 04:07:00,
2013-07-18 23:12:00,75.4,70.2,29.69,SW,222,0.0,2.0,84,0.00,,,0.00,Wunderground v.1.15,2013-07-19 04:12:00,
2013-07-18 23:17:00,75.4,69.2,29.69,SW,219,1.0,2.0,81,0.00,,,0.00,Wunderground v.1.15,2013-07-19 04:17:00,
2013-07-18 23:22:00,75.4,69.2,29.69,SW,221,0.0,0.0,81,0.00,,,0.00,Wunderground v.1.15,2013-07-19 04:22:00,
2013-07-18 23:27:00,75.5,70.0,29.68,SSW,205,1.0,2.0,83,0.00,,,0.00,Wunderground v.1.15,2013-07-19 04:27:00,
2013-07-18 23:32:00,75.3,70.1,29.69,SE,134,1.0,2.0,84,0.00,,,0.00,Wunderground v.1.15,2013-07-19 04:32:00,
2013-07-18 23:37:00,75.1,69.9,29.68,SSE,160,0.0,2.0,84,0.00,,,0.00,Wunderground v.1.15,2013-07-19 04:37:00,
2013-07-18 23:42:00,75.0,69.8,29.68,SSE,168,0.0,0.0,84,0.00,,,0.00,Wunderground v.1.15,2013-07-19 04:42:00,
2013-07-18 23:47:00,74.8,70.0,29.68,SSE,160,1.0,2.0,85,0.00,,,0.00,Wunderground v.1.15,2013-07-19 04:47:00,
2013-07-18 23:52:00,74.6,69.8,29.68,SE,146,0.0,0.0,85,0.00,,,0.00,Wunderground v.1.15,2013-07-19 04:52:00,
2013-07-18 23:57:00,74.4,69.9,29.68,SE,142,0.0,2.0,86,0.00,,,0.00,Wunderground v.1.15,2013-07-19 04:57:00,